When you browse on this site, cookies collect data to enhance your experience and personalize the content and advertising you see.
Visit our Privacy Policy to learn more. By continuing to use the site, you agree to this use of cookies and data.
  • In Latvia
  • List of Countries
  • For 7 days
  • Water Temperature
  • Weather Map
  • Weather Widgets
  • user-avatar
    Login

    Hourly Weather Zydomice

    Today, 17 October, Thursday

    Time Temperature Precipitation Wind Pressure Humidity
    00:00 +10°C° 0 mm 5 mps 749 mmHg 71%
    01:00 +10°C° 0 mm 5 mps 749 mmHg 72%
    02:00 +10°C° 0 mm 5 mps 749 mmHg 73%
    03:00 +10°C° 0 mm 4 mps 749 mmHg 73%
    04:00 +10°C° 0 mm 4 mps 749 mmHg 74%
    05:00 +10°C° 0 mm 4 mps 749 mmHg 74%
    06:00 +10°C° 0 mm 4 mps 750 mmHg 75%
    07:00 +10°C° 0 mm 4 mps 750 mmHg 76%
    08:00 +12°C° 0 mm 4 mps 750 mmHg 69%
    09:00 +14°C° 0 mm 4 mps 750 mmHg 63%
    10:00 +17°C° 0 mm 4 mps 750 mmHg 56%
    11:00 +18°C° 0 mm 4 mps 750 mmHg 53%
    12:00 +19°C° 0 mm 4 mps 750 mmHg 50%
    13:00 +20°C° 0 mm 4 mps 750 mmHg 47%
    14:00 +19°C° 0 mm 3 mps 750 mmHg 50%
    15:00 +18°C° 0 mm 3 mps 750 mmHg 52%
    16:00 +18°C° 0 mm 2 mps 750 mmHg 55%
    17:00 +17°C° 0 mm 2 mps 750 mmHg 58%
    18:00 +16°C° 0 mm 3 mps 750 mmHg 60%
    19:00 +14°C° 0 mm 3 mps 750 mmHg 63%
    20:00 +14°C° 0 mm 3 mps 750 mmHg 64%
    21:00 +13°C° 0 mm 3 mps 750 mmHg 66%
    22:00 +13°C° 0 mm 3 mps 750 mmHg 67%
    23:00 +12°C° 0 mm 3 mps 750 mmHg 67%

    Tomorrow, 18 October, Friday

    Time Temperature Precipitation Wind Pressure Humidity
    00:00 +12°C° 0 mm 3 mps 750 mmHg 68%
    01:00 +12°C° 0 mm 3 mps 750 mmHg 69%
    02:00 +12°C° 0 mm 3 mps 750 mmHg 72%
    03:00 +12°C° 0 mm 2 mps 750 mmHg 74%
    04:00 +12°C° 0 mm 2 mps 750 mmHg 77%
    05:00 +12°C° 0 mm 2 mps 750 mmHg 78%
    06:00 +12°C° 0 mm 2 mps 750 mmHg 79%
    07:00 +12°C° 0 mm 2 mps 750 mmHg 80%
    08:00 +14°C° 0 mm 2 mps 750 mmHg 74%
    09:00 +14°C° 0 mm 3 mps 750 mmHg 69%
    10:00 +17°C° 0 mm 3 mps 750 mmHg 63%
    11:00 +18°C° 0 mm 3 mps 749 mmHg 61%
    12:00 +19°C° 0 mm 3 mps 749 mmHg 58%
    13:00 +20°C° 0 mm 3 mps 749 mmHg 56%
    14:00 +19°C° 0 mm 2 mps 748 mmHg 58%
    15:00 +19°C° 0 mm 2 mps 748 mmHg 60%
    16:00 +19°C° 0 mm 1 mps 748 mmHg 63%
    17:00 +17°C° 0 mm 2 mps 748 mmHg 64%
    18:00 +17°C° 0 mm 2 mps 748 mmHg 66%
    19:00 +16°C° 0 mm 2 mps 748 mmHg 68%
    20:00 +15°C° 0 mm 2 mps 748 mmHg 69%
    21:00 +15°C° 0 mm 2 mps 748 mmHg 70%
    22:00 +14°C° 0 mm 2 mps 748 mmHg 72%
    23:00 +14°C° 0 mm 2 mps 748 mmHg 71%

    Day after tomorrow, 19 October, Saturday

    Time Temperature Precipitation Wind Pressure Humidity
    00:00 +14°C° 0 mm 2 mps 748 mmHg 71%
    01:00 +14°C° 0 mm 2 mps 748 mmHg 71%
    02:00 +14°C° 0 mm 2 mps 748 mmHg 71%
    03:00 +13°C° 0 mm 2 mps 748 mmHg 72%
    04:00 +13°C° 0 mm 2 mps 748 mmHg 72%
    05:00 +13°C° 0 mm 2 mps 748 mmHg 73%
    06:00 +13°C° 0 mm 2 mps 748 mmHg 73%
    07:00 +14°C° 0 mm 2 mps 748 mmHg 74%
    08:00 +15°C° 0 mm 2 mps 748 mmHg 69%
    09:00 +17°C° 0 mm 2 mps 748 mmHg 64%
    10:00 +18°C° 0 mm 2 mps 748 mmHg 60%
    11:00 +19°C° 0 mm 2 mps 748 mmHg 58%
    12:00 +20°C° 0 mm 2 mps 748 mmHg 56%
    13:00 +20°C° 0 mm 2 mps 748 mmHg 54%
    14:00 +20°C° 0 mm 2 mps 748 mmHg 57%
    15:00 +19°C° 0 mm 2 mps 747 mmHg 60%
    16:00 +19°C° 0 mm 1 mps 747 mmHg 63%
    17:00 +17°C° 0 mm 2 mps 747 mmHg 66%
    18:00 +16°C° 0 mm 2 mps 748 mmHg 69%
    19:00 +15°C° 0 mm 2 mps 748 mmHg 72%
    20:00 +15°C° 0 mm 2 mps 748 mmHg 74%
    21:00 +14°C° 0 mm 2 mps 748 mmHg 76%
    22:00 +14°C° 0 mm 2 mps 748 mmHg 77%
    23:00 +14°C° 0 mm 2 mps 748 mmHg 78%

    20 October, Sunday

    Time Temperature Precipitation Wind Pressure Humidity
    00:00 +14°C° 0 mm 2 mps 748 mmHg 79%
    01:00 +13°C° 0 mm 2 mps 748 mmHg 80%
    02:00 +13°C° 0 mm 2 mps 748 mmHg 80%
    03:00 +13°C° 0 mm 2 mps 748 mmHg 81%
    04:00 +12°C° 0 mm 3 mps 748 mmHg 81%
    05:00 +12°C° 0 mm 3 mps 747 mmHg 82%
    06:00 +12°C° 0 mm 3 mps 747 mmHg 82%
    07:00 +12°C° 0 mm 3 mps 747 mmHg 82%
    08:00 +14°C° 0 mm 3 mps 747 mmHg 75%
    09:00 +17°C° 0 mm 3 mps 747 mmHg 67%
    10:00 +19°C° 0 mm 3 mps 748 mmHg 59%
    11:00 +20°C° 0 mm 3 mps 747 mmHg 56%
    12:00 +20°C° 0 mm 3 mps 747 mmHg 53%
    13:00 +21°C° 0 mm 3 mps 747 mmHg 51%
    14:00 +20°C° 0 mm 3 mps 747 mmHg 56%
    15:00 +19°C° 0 mm 3 mps 747 mmHg 61%
    16:00 +18°C° 0 mm 3 mps 747 mmHg 66%
    17:00 +17°C° 0 mm 3 mps 748 mmHg 70%
    18:00 +16°C° 0 mm 3 mps 748 mmHg 74%
    19:00 +14°C° 0 mm 3 mps 749 mmHg 78%
    20:00 +14°C° 0 mm 3 mps 749 mmHg 80%
    21:00 +13°C° 0 mm 3 mps 750 mmHg 83%
    22:00 +13°C° 0 mm 3 mps 750 mmHg 85%
    23:00 +13°C° 0 mm 3 mps 751 mmHg 87%

    21 October, Monday

    Time Temperature Precipitation Wind Pressure Humidity
    00:00 +12°C° 0 mm 3 mps 751 mmHg 89%
    01:00 +12°C° 0 mm 3 mps 751 mmHg 91%
    02:00 +12°C° 0 mm 2 mps 752 mmHg 92%
    03:00 +12°C° 0 mm 2 mps 752 mmHg 93%
    04:00 +12°C° 0 mm 2 mps 752 mmHg 94%
    05:00 +12°C° 0 mm 2 mps 753 mmHg 95%
    06:00 +12°C° 0 mm 2 mps 753 mmHg 95%
    07:00 +12°C° 0 mm 1 mps 753 mmHg 95%
    08:00 +13°C° 0 mm 1 mps 754 mmHg 89%
    09:00 +14°C° 0 mm 2 mps 754 mmHg 83%
    10:00 +16°C° 0 mm 2 mps 754 mmHg 76%
    11:00 +17°C° 0 mm 2 mps 754 mmHg 72%
    12:00 +17°C° 0 mm 2 mps 755 mmHg 69%
    13:00 +18°C° 0 mm 2 mps 755 mmHg 65%
    14:00 +18°C° 0 mm 2 mps 755 mmHg 67%
    15:00 +17°C° 0 mm 2 mps 754 mmHg 69%
    16:00 +17°C° 0 mm 2 mps 754 mmHg 71%
    17:00 +16°C° 0 mm 2 mps 755 mmHg 75%
    18:00 +15°C° 0 mm 2 mps 755 mmHg 78%
    19:00 +14°C° 0 mm 2 mps 755 mmHg 81%
    20:00 +13°C° 0 mm 2 mps 755 mmHg 83%
    21:00 +13°C° 0 mm 2 mps 756 mmHg 86%
    22:00 +13°C° 0 mm 2 mps 756 mmHg 88%
    23:00 +12°C° 0 mm 2 mps 756 mmHg 89%

    22 October, Tuesday

    Time Temperature Precipitation Wind Pressure Humidity
    00:00 +12°C° 0 mm 2 mps 756 mmHg 90%
    01:00 +12°C° 0 mm 2 mps 756 mmHg 92%
    02:00 +12°C° 0 mm 2 mps 756 mmHg 92%
    03:00 +10°C° 0 mm 2 mps 756 mmHg 93%
    04:00 +10°C° 0 mm 2 mps 756 mmHg 93%
    05:00 +10°C° 0 mm 3 mps 756 mmHg 93%
    06:00 +10°C° 0 mm 3 mps 756 mmHg 92%
    07:00 +10°C° 0 mm 3 mps 756 mmHg 92%
    08:00 +11°C° 0 mm 3 mps 756 mmHg 88%
    09:00 +12°C° 0 mm 4 mps 756 mmHg 83%
    10:00 +13°C° 0 mm 4 mps 756 mmHg 79%
    11:00 +13°C° 0.1 mm 4 mps 756 mmHg 80%
    12:00 +13°C° 0.1 mm 5 mps 756 mmHg 82%
    13:00 +13°C° 0.1 mm 5 mps 756 mmHg 83%
    14:00 +12°C° 0.5 mm 5 mps 755 mmHg 84%
    15:00 +12°C° 0.5 mm 5 mps 755 mmHg 86%
    16:00 +12°C° 0.5 mm 5 mps 755 mmHg 87%
    17:00 +12°C° 0.3 mm 5 mps 755 mmHg 87%
    18:00 +10°C° 0.3 mm 5 mps 755 mmHg 87%
    19:00 +10°C° 0.3 mm 5 mps 756 mmHg 87%
    20:00 +10°C° 0.1 mm 5 mps 756 mmHg 87%
    21:00 +11°C° 0.1 mm 4 mps 756 mmHg 87%
    22:00 +11°C° 0.1 mm 4 mps 756 mmHg 87%
    23:00 +11°C° 0 mm 4 mps 756 mmHg 85%
    Show more